Precipitable_Water
0.86 0.86 0.86 1.01 1.13 1.11 1.10 1.15 1.19 1.27 1.43 1.44 1.40 1.34 1.29 1.18 1.31 1.38 1.51 1.38 1.30 1.34 1.34 1.09 0.99 1.00 0.73 0.72 0.75 0.76 0.69 0.63 0.51 0.59 0.70 0.66 0.58 0.49 0.45 0.44 0.43 0.40 0.39
0.89 0.80 0.86 0.86 1.08 1.08 1.09 1.17 1.21 1.18 1.30 1.43 1.48 1.42 1.37 1.29 1.23 1.31 1.47 1.43 1.30 1.27 1.31 1.14 1.02 1.02 0.81 0.73 0.72 0.71 0.70 0.67 0.59 0.54 0.64 0.61 0.57 0.54 0.49 0.44 0.42 0.44 0.40
0.71 0.83 0.77 0.82 0.89 1.02 1.10 1.19 1.22 1.26 1.26 1.36 1.49 1.46 1.37 1.32 1.25 1.30 1.46 1.46 1.33 1.27 1.29 1.23 1.03 1.02 0.86 0.75 0.69 0.68 0.67 0.66 0.66 0.61 0.58 0.67 0.60 0.58 0.51 0.48 0.45 0.44 0.43
0.64 0.71 0.80 0.77 0.80 0.91 1.06 1.21 1.21 1.28 1.31 1.33 1.36 1.42 1.40 1.36 1.32 1.30 1.45 1.48 1.37 1.30 1.29 1.33 1.08 1.03 0.93 0.83 0.77 0.72 0.71 0.67 0.67 0.64 0.61 0.64 0.62 0.57 0.55 0.46 0.42 0.45 0.43
0.60 0.69 0.66 0.84 0.87 0.83 0.88 1.14 1.26 1.28 1.33 1.32 1.34 1.35 1.42 1.43 1.41 1.35 1.41 1.49 1.43 1.32 1.28 1.37 1.16 1.09 1.04 0.94 0.83 0.77 0.74 0.70 0.66 0.64 0.60 0.61 0.61 0.54 0.46 0.47 0.43 0.44 0.45
0.64 0.68 0.71 0.75 0.82 0.82 0.83 1.00 1.25 1.28 1.32 1.37 1.30 1.25 1.28 1.35 1.45 1.42 1.41 1.44 1.47 1.34 1.22 1.34 1.23 1.09 1.07 0.99 0.89 0.83 0.80 0.72 0.68 0.63 0.62 0.58 0.59 0.60 0.54 0.47 0.44 0.41 0.35
0.76 0.74 0.75 0.74 0.77 0.79 0.84 0.96 1.17 1.21 1.27 1.26 1.19 1.18 1.23 1.25 1.34 1.40 1.43 1.47 1.42 1.39 1.26 1.30 1.21 1.10 1.09 1.04 0.91 0.84 0.80 0.76 0.77 0.71 0.64 0.63 0.61 0.61 0.58 0.51 0.45 0.43 0.40
0.75 0.83 0.84 0.82 0.80 0.79 0.80 0.88 1.15 1.21 1.17 1.17 1.14 1.10 1.16 1.21 1.26 1.33 1.45 1.50 1.46 1.44 1.36 1.30 1.25 1.11 1.07 1.03 0.94 0.83 0.77 0.73 0.72 0.69 0.69 0.71 0.69 0.65 0.62 0.56 0.49 0.47 0.49
0.78 0.82 0.90 0.87 0.84 0.82 0.77 0.83 1.03 1.16 1.12 1.14 1.11 1.06 1.10 1.21 1.27 1.26 1.34 1.45 1.45 1.45 1.42 1.33 1.33 1.16 1.09 0.99 0.96 0.85 0.77 0.70 0.70 0.70 0.71 0.69 0.71 0.65 0.60 0.54 0.47 0.44 0.42
0.71 0.80 0.87 0.91 0.89 0.91 0.88 0.88 0.96 1.05 1.04 1.07 1.10 1.14 1.19 1.20 1.29 1.28 1.36 1.39 1.39 1.43 1.42 1.35 1.34 1.20 1.10 0.96 0.93 0.88 0.74 0.67 0.68 0.64 0.65 0.64 0.64 0.64 0.59 0.54 0.51 0.42 0.43
0.76 0.83 0.86 0.91 0.97 0.99 0.95 1.02 1.00 1.05 1.06 1.08 1.10 1.16 1.23 1.28 1.29 1.29 1.44 1.41 1.40 1.39 1.36 1.30 1.32 1.16 1.08 0.95 0.92 0.96 0.84 0.84 0.74 0.71 0.66 0.63 0.64 0.64 0.62 0.57 0.52 0.47 0.45
0.84 0.87 0.88 0.93 0.96 0.98 0.99 0.98 1.00 1.03 1.03 1.07 1.09 1.12 1.22 1.24 1.34 1.32 1.41 1.45 1.47 1.39 1.33 1.30 1.28 1.10 1.03 0.93 0.91 0.98 0.97 0.90 0.85 0.80 0.75 0.67 0.65 0.62 0.63 0.63 0.56 0.51 0.52
0.86 0.82 0.88 0.95 0.96 0.97 0.98 1.03 1.01 1.03 1.05 1.05 1.06 1.09 1.12 1.22 1.28 1.32 1.37 1.41 1.46 1.39 1.35 1.31 1.25 1.11 1.05 0.97 0.96 1.01 1.01 0.94 0.86 0.82 0.73 0.70 0.70 0.68 0.69 0.65 0.64 0.62 0.62
0.81 0.84 0.88 0.86 0.90 0.90 0.93 0.95 0.98 0.99 1.00 0.99 1.00 1.03 1.11 1.18 1.27 1.31 1.32 1.36 1.39 1.36 1.32 1.28 1.21 1.14 1.09 1.04 1.01 1.02 0.99 0.93 0.87 0.80 0.78 0.78 0.74 0.71 0.70 0.71 0.66 0.66 0.64
0.79 0.78 0.79 0.82 0.85 0.85 0.88 0.91 0.90 0.92 0.96 0.98 1.00 1.07 1.10 1.11 1.21 1.29 1.31 1.31 1.34 1.32 1.30 1.23 1.12 1.07 1.01 1.00 0.98 0.96 0.90 0.84 0.80 0.80 0.78 0.76 0.73 0.71 0.72 0.75 0.71 0.69 0.65
0.77 0.76 0.76 0.78 0.80 0.82 0.83 0.85 0.95 0.96 1.01 1.03 1.06 1.07 1.14 1.20 1.22 1.24 1.28 1.30 1.32 1.32 1.21 1.14 1.05 1.00 0.96 0.95 0.92 0.92 0.81 0.69 0.72 0.75 0.75 0.76 0.75 0.72 0.70 0.72 0.73 0.69 0.67
0.73 0.75 0.76 0.78 0.79 0.82 0.84 0.85 0.84 0.92 0.97 0.97 0.99 1.02 1.05 1.09 1.13 1.17 1.19 1.21 1.21 1.21 1.13 1.08 1.04 1.00 0.97 1.00 0.99 0.95 0.82 0.73 0.74 0.75 0.77 0.78 0.77 0.78 0.77 0.74 0.77 0.79 0.75
0.51 0.67 0.74 0.75 0.76 0.77 0.78 0.79 0.81 0.80 0.81 0.84 0.91 0.93 0.96 0.99 1.03 1.06 1.08 1.10 1.06 1.07 1.05 1.03 1.01 1.02 1.03 1.01 0.98 0.94 0.92 0.86 0.83 0.83 0.83 0.83 0.80 0.79 0.80 0.84 0.84 0.82 0.82
0.34 0.39 0.48 0.57 0.68 0.72 0.73 0.75 0.76 0.76 0.77 0.78 0.82 0.86 0.89 0.90 0.92 0.94 0.96 0.94 0.93 0.94 0.95 0.96 0.97 0.99 0.99 0.98 1.00 0.97 0.96 0.94 0.93 0.92 0.93 0.92 0.91 0.89 0.87 0.86 0.84 0.81 0.79
0.26 0.28 0.32 0.36 0.41 0.47 0.57 0.66 0.70 0.71 0.71 0.72 0.74 0.75 0.80 0.83 0.82 0.83 0.85 0.87 0.86 0.87 0.88 0.89 0.91 0.94 0.95 0.95 0.94 0.94 0.93 0.93 0.92 0.92 0.90 0.89 0.89 0.86 0.83 0.81 0.80 0.76 0.75
0.22 0.24 0.23 0.26 0.28 0.32 0.36 0.40 0.49 0.56 0.64 0.67 0.68 0.72 0.74 0.74 0.74 0.75 0.77 0.79 0.80 0.81 0.82 0.84 0.85 0.86 0.86 0.87 0.88 0.87 0.86 0.87 0.86 0.85 0.85 0.84 0.82 0.80 0.80 0.78 0.76 0.74 0.72
0.22 0.21 0.21 0.21 0.22 0.23 0.25 0.28 0.32 0.35 0.41 0.48 0.56 0.63 0.68 0.69 0.69 0.70 0.71 0.72 0.74 0.76 0.78 0.78 0.78 0.79 0.80 0.80 0.81 0.81 0.80 0.79 0.79 0.79 0.79 0.78 0.77 0.75 0.74 0.72 0.70 0.69 0.68
0.22 0.21 0.20 0.20 0.20 0.21 0.21 0.22 0.22 0.24 0.28 0.32 0.37 0.43 0.49 0.53 0.57 0.61 0.64 0.67 0.69 0.71 0.73 0.73 0.73 0.74 0.76 0.76 0.77 0.76 0.74 0.74 0.75 0.76 0.74 0.73 0.72 0.71 0.70 0.67 0.66 0.64 0.63
0.22 0.21 0.19 0.19 0.19 0.19 0.19 0.19 0.20 0.21 0.22 0.23 0.26 0.29 0.33 0.38 0.44 0.49 0.53 0.56 0.58 0.61 0.64 0.66 0.67 0.68 0.69 0.70 0.71 0.72 0.72 0.73 0.73 0.73 0.72 0.70 0.68 0.67 0.66 0.64 0.62 0.61 0.59
0.21 0.20 0.20 0.19 0.19 0.19 0.19 0.19 0.19 0.20 0.20 0.21 0.22 0.24 0.26 0.28 0.30 0.34 0.37 0.41 0.45 0.47 0.49 0.50 0.52 0.54 0.54 0.55 0.57 0.58 0.61 0.62 0.62 0.63 0.62 0.61 0.59 0.58 0.57 0.55 0.52 0.49 0.45
0.21 0.21 0.20 0.21 0.21 0.20 0.20 0.20 0.20 0.21 0.21 0.21 0.22 0.23 0.24 0.25 0.27 0.28 0.30 0.32 0.33 0.34 0.35 0.36 0.37 0.37 0.38 0.39 0.39 0.41 0.42 0.42 0.42 0.43 0.43 0.41 0.38 0.36 0.34 0.31 0.28 0.26 0.25
Wind_Speed
38 39 38 39 37 37 35 32 30 30 32 36 38 38 40 40 39 37 35 33 31 30 28 28 27 26 25 24 23 21 20 19 18 18 15 16 16 17 17 17 17 17 17
38 39 40 38 39 38 38 35 32 30 31 36 38 38 39 41 41 39 37 35 34 33 31 30 29 28 28 26 25 25 23 22 21 20 18 18 18 18 19 19 19 19 19
40 39 40 40 40 40 40 40 38 35 32 31 37 40 39 41 42 41 39 38 36 35 34 32 31 30 29 29 28 27 26 24 23 23 21 20 20 20 20 21 21 21 22
41 41 40 41 41 41 40 41 41 38 37 36 35 38 43 42 44 43 41 40 38 37 36 35 34 32 32 31 30 29 28 26 25 24 24 23 22 22 22 22 22 22 23
42 43 42 40 41 41 42 42 42 42 39 38 37 36 36 44 47 46 45 42 40 39 38 37 36 35 34 32 31 31 30 29 27 26 25 25 24 23 24 23 24 23 24
43 43 42 42 41 41 42 43 43 42 41 40 39 38 38 38 42 49 47 45 44 42 41 39 37 37 36 35 34 32 32 31 30 28 27 26 27 26 25 25 25 25 24
41 43 42 42 42 41 42 43 45 44 43 42 41 40 40 40 40 46 50 48 47 45 43 41 39 38 38 37 36 36 35 34 32 31 30 29 28 28 27 27 27 27 27
40 41 41 42 42 42 42 43 43 44 44 44 43 42 42 41 42 44 49 52 50 48 46 43 41 40 38 38 37 37 37 36 35 34 33 31 31 30 30 30 29 29 29
37 38 38 41 43 43 44 44 45 44 44 45 46 45 44 44 45 47 51 53 53 50 48 46 43 41 40 39 38 37 37 37 36 37 36 34 33 32 32 31 30 30 30
36 38 39 39 40 42 43 44 44 44 45 46 47 47 45 46 45 47 52 54 55 52 50 47 45 43 41 41 40 38 37 36 36 35 36 36 35 35 35 34 33 32 32
32 36 37 38 39 40 42 42 42 43 43 45 47 48 48 47 48 49 53 56 55 54 50 48 46 45 42 42 42 40 38 37 36 36 35 35 35 36 36 36 37 35 34
24 28 31 33 35 37 38 40 41 41 42 43 45 47 48 48 48 49 52 56 56 54 52 49 47 45 44 43 43 42 39 38 37 37 36 36 36 37 37 38 38 39 39
15 21 24 24 27 31 36 38 39 40 41 42 43 45 47 48 50 49 52 55 59 54 52 50 47 45 44 44 44 43 41 40 40 39 38 38 38 38 39 39 40 40 41
8 11 14 18 21 23 27 30 33 37 40 42 43 44 45 46 44 44 50 50 56 55 51 49 48 45 45 44 43 44 44 43 42 41 41 40 40 40 41 41 42 42 43
5 7 9 12 15 19 21 22 26 28 32 36 38 42 42 41 42 44 46 51 54 54 51 48 46 44 44 43 44 44 44 45 44 44 43 43 43 43 43 43 44 44 45
9 5 4 8 11 14 16 19 20 22 24 28 30 32 37 39 38 39 44 47 48 50 51 48 47 45 44 44 44 44 44 45 45 45 46 45 45 45 45 45 45 46 47
16 14 9 7 6 5 8 12 15 16 17 16 19 22 25 29 30 35 37 38 42 45 49 48 47 46 45 44 44 44 44 45 45 46 47 47 47 47 47 46 47 49 52
15 14 14 12 10 9 7 8 6 7 8 10 10 10 12 16 19 23 29 33 35 38 41 44 44 44 44 45 45 44 44 44 45 46 46 46 46 46 49 51 52 55 56
14 13 12 12 12 11 11 10 9 9 8 8 8 8 9 9 9 11 17 21 25 28 32 36 40 42 43 43 44 45 46 46 46 47 47 49 49 49 49 51 52 52 51
14 15 13 12 12 12 12 11 10 10 10 9 9 9 8 6 5 9 13 17 17 20 24 27 31 33 36 37 37 39 39 39 41 43 44 46 47 47 47 44 44 42 41
15 15 15 14 13 13 13 12 12 11 11 10 9 9 9 7 5 5 5 6 9 12 13 16 19 22 26 28 30 31 33 35 36 38 39 39 38 37 37 37 37 37 37
16 16 16 16 16 16 15 14 14 13 13 12 11 11 10 9 8 8 8 7 8 8 9 11 12 14 15 17 19 21 22 23 24 25 26 27 28 29 29 30 30 30 30
18 18 17 17 17 17 18 17 17 16 15 15 14 14 14 12 12 12 12 12 12 11 12 12 13 14 16 16 17 18 19 20 22 23 23 24 24 24 25 25 25 25 25
21 20 19 19 18 18 19 19 19 19 18 18 18 17 16 15 15 15 15 15 14 14 15 15 16 16 17 17 18 18 19 19 20 20 20 21 21 21 21 21 21 21 21
25 24 22 21 20 20 19 19 19 19 19 19 19 19 19 18 18 18 17 16 16 16 16 16 16 17 17 18 19 19 20 20 20 20 20 19 19 19 19 19 20 21 21
27 26 25 24 23 21 20 19 19 19 18 18 18 18 19 19 18 18 18 18 18 18 17 17 17 17 17 17 17 17 17 17 17 18 17 18 18 18 18 18 18 19 19
Wind_Direction
231 232 233 234 236 236 236 237 237 233 231 230 231 232 232 233 234 234 236 238 240 243 244 244 245 246 245 247 248 252 256 259 264 266 269 269 272 272 273 274 279 283 286
233 233 234 235 235 236 235 237 235 236 235 234 231 233 234 233 234 235 236 238 240 241 243 244 245 246 245 246 248 250 255 259 261 264 266 267 272 271 272 274 276 280 284
234 233 234 234 236 236 236 237 239 237 238 237 235 234 236 235 235 236 237 239 241 241 243 244 245 245 245 245 247 250 253 257 259 262 265 267 270 272 273 273 275 278 282
234 234 235 235 236 237 237 237 238 239 238 239 239 239 239 238 237 236 238 239 241 242 243 244 245 245 245 245 247 249 251 255 257 260 263 265 268 271 272 274 275 277 281
233 234 235 237 237 238 238 237 237 238 239 238 239 241 244 240 239 236 237 240 241 242 243 244 245 245 245 247 248 249 249 252 255 258 261 263 266 268 268 273 274 278 279
233 234 235 237 238 238 239 238 237 237 238 240 241 242 244 246 241 237 238 240 241 242 243 244 246 245 247 247 249 250 249 251 252 256 260 263 265 266 269 271 274 276 279
236 234 235 237 239 239 239 239 238 238 239 240 242 243 245 247 246 241 239 240 240 241 242 244 245 246 246 247 248 250 251 251 253 255 259 262 265 266 267 268 272 274 277
236 236 235 237 239 239 239 238 238 239 239 241 243 245 247 249 249 246 241 239 240 240 241 243 244 245 245 245 248 249 250 251 251 254 258 262 264 267 267 268 271 274 276
235 236 238 240 239 240 239 238 239 240 241 242 244 246 249 251 252 252 243 239 238 238 240 242 244 245 245 244 246 249 249 250 252 253 257 260 263 265 266 268 269 271 275
236 238 240 242 243 240 239 238 239 242 243 244 246 247 251 253 256 257 243 238 235 237 239 240 243 243 243 242 245 247 249 251 251 253 256 259 261 263 265 265 268 270 274
238 240 241 242 243 242 238 238 241 244 245 246 247 248 251 255 258 259 241 235 233 234 237 239 242 241 243 242 243 246 250 251 251 253 256 260 262 263 264 264 265 269 272
237 238 241 242 241 239 239 240 242 245 246 248 249 250 253 256 261 255 242 234 232 233 236 238 241 241 241 242 242 247 249 250 251 253 256 259 262 263 265 266 267 268 271
241 240 240 243 241 241 242 243 243 245 248 250 251 253 256 259 258 253 240 236 229 233 235 238 240 240 240 242 244 246 248 249 251 254 256 259 262 265 266 267 268 269 270
244 243 240 242 242 243 244 246 248 250 251 253 254 255 258 257 255 248 236 233 229 232 235 237 239 241 240 243 244 247 248 249 252 255 258 261 263 265 266 267 268 270 271
280 261 254 250 249 248 249 250 251 255 256 256 258 257 256 255 254 246 236 233 231 233 232 236 239 239 241 242 246 248 249 250 253 256 259 261 263 265 266 268 269 270 272
34 6 297 271 264 258 258 256 255 259 264 267 266 259 256 255 254 243 236 233 233 232 231 237 239 240 242 244 247 249 250 252 254 257 259 262 263 265 267 268 269 270 273
40 38 31 22 359 299 282 276 266 267 266 277 273 267 260 254 251 241 237 233 234 230 233 236 240 242 245 246 250 252 253 254 255 259 263 265 265 267 268 268 270 272 274
32 34 32 30 24 19 12 10 341 322 289 293 295 292 268 257 249 245 235 233 233 235 236 238 242 246 249 252 254 255 255 256 258 261 264 265 267 267 269 272 272 275 277
15 12 9 12 11 10 7 360 3 1 357 347 334 313 292 269 255 244 235 237 236 237 241 243 244 248 252 254 256 256 258 259 262 263 266 269 267 270 270 273 275 278 277
359 0 356 352 352 357 357 352 352 353 350 350 351 348 340 329 299 266 259 246 246 245 245 247 248 252 255 258 257 259 259 262 264 266 268 269 269 271 273 274 275 276 276
341 342 343 342 338 337 335 335 336 338 333 333 341 342 338 332 325 321 300 271 260 255 256 256 257 257 258 259 261 263 265 267 268 268 268 271 271 271 272 273 275 276 277
337 334 333 330 327 326 325 321 320 318 320 320 318 318 320 319 315 307 301 294 288 275 271 264 265 266 267 266 269 269 270 272 273 273 272 272 273 273 275 276 276 276 278
346 340 332 327 324 322 319 316 314 311 308 307 306 305 305 302 299 296 292 291 287 281 279 277 276 273 275 275 277 276 275 277 276 277 278 277 276 276 277 278 280 281 281
2 356 348 340 332 325 319 314 311 309 306 303 302 300 298 296 295 293 292 291 288 286 284 281 281 281 280 281 281 282 281 282 282 282 282 281 280 278 280 282 283 285 287
12 8 2 354 345 338 331 324 317 312 307 302 298 296 295 294 293 292 289 286 286 286 288 289 289 288 287 288 287 285 285 285 286 286 286 285 285 284 284 284 286 288 289
13 12 9 6 1 353 344 336 329 323 317 310 304 299 294 291 290 290 290 289 288 289 289 291 292 292 292 291 291 290 290 289 289 289 288 288 289 290 291 293 296 298 300